Epoch 1999 Mar. 3.0 TT = JDT 2451240.5
T 1999 Feb. 26.51217 TT MPC
q 3.8433434 (2000.0) P Q
n 0.07497203 Peri. 251.74999 +0.28876746 -0.95727113
a 5.5701883 Node 181.71689 +0.94854666 +0.28383944
e 0.3100155 Incl. 31.51908 -0.12989450 -0.05538181
P 13.15
From 141 observations 1997 Oct. 29-2010 Aug. 16, mean residual 0".68.